Date,TemperatureHighF,TemperatureAvgF,TemperatureLowF,DewpointHighF,DewpointAvgF,DewpointLowF,HumidityHigh,HumidityAvg,HumidityLow,PressureMaxIn,PressureMinIn,WindSpeedMaxMPH,WindSpeedAvgMPH,GustSpeedMaxMPH,PrecipitationSumIn
2013-9-1,95,81,72,78,74,71,99,81,51,29.97,29.87,7,1,9,0.00
2013-9-2,95,81,71,78,74,71,99,80,53,29.98,29.88,5,0,8,0.00
2013-9-3,93,82,73,79,75,72,99,83,58,29.99,29.89,5,1,8,0.00
2013-9-4,97,82,73,78,74,72,100,80,45,30.07,29.96,5,1,12,0.02
2013-9-5,97,81,73,78,74,71,98,82,51,30.09,29.99,9,1,10,0.19
2013-9-6,93,76,71,79,74,70,100,92,61,30.05,29.98,12,1,13,0.84
2013-9-7,90,78,68,79,72,68,100,83,54,30.03,29.95,7,1,10,0.01
2013-9-8,91,79,69,77,70,63,100,78,41,29.99,29.91,6,1,9,0.00
2013-9-9,92,79,69,75,70,67,98,77,46,30.07,29.96,5,1,9,0.00
2013-9-10,90,80,70,75,71,69,98,77,52,30.14,30.04,8,2,13,0.00
2013-9-11,91,79,71,77,73,70,98,82,56,30.11,30.03,5,1,10,0.00
2013-9-12,90,78,71,79,74,71,100,87,59,30.05,29.89,8,1,12,0.64
2013-9-13,94,81,70,77,72,68,100,77,43,29.91,29.77,7,1,7,0.00
2013-9-14,94,80,70,77,72,70,98,79,48,29.99,29.82,5,1,11,0.00
2013-9-15,94,82,73,79,74,71,99,79,54,30.09,29.98,6,1,11,0.00
2013-9-16,93,81,72,79,75,72,100,82,57,30.09,29.99,4,1,8,0.02
2013-9-17,88,78,72,78,74,71,100,88,65,30.10,30.00,10,2,12,0.58
2013-9-18,82,74,71,78,72,69,100,94,77,30.11,30.02,7,2,12,0.67
2013-9-19,87,75,70,76,73,70,100,92,68,30.09,30.02,6,1,10,0.91
2013-9-20,88,76,67,76,70,67,100,84,59,30.05,29.93,4,1,8,0.01
2013-9-21,88,79,67,75,72,67,100,82,60,29.90,29.78,6,1,6,0.00
2013-9-22,83,75,72,77,73,71,100,93,79,29.84,29.74,6,1,12,0.50
2013-9-23,82,75,71,78,74,71,100,96,83,29.96,29.83,3,0,5,0.03
2013-9-24,83,76,73,78,74,73,100,94,78,29.95,29.82,3,1,7,0.56
2013-9-25,86,78,73,77,74,73,100,91,71,29.83,29.74,5,1,10,0.02
2013-9-26,79,74,69,76,72,67,100,93,82,29.91,29.74,7,1,8,0.08
2013-9-27,83,72,65,72,68,64,97,86,70,30.00,29.88,8,2,15,0.00
2013-9-28,77,73,69,71,69,65,98,88,69,30.08,29.97,8,2,11,0.14
2013-9-29,83,73,66,72,68,65,97,85,64,30.03,29.95,10,2,12,0.00
2013-9-30,83,73,66,71,67,64,98,82,60,30.04,29.94,6,1,11,0.00